This demonstration page uses our WeatherBlox Daily Observations layout. Learn more.

Left ArrowRight Arrow

34.74481, -87.66753

Hourly Observations for May 12, 2019

Temp ( °F °C ) Dew Point ( °F °C ) Humidity (%) Winds ( mph kmh ) Pressure ( in mb ) Visibility ( mi km ) Precip ( " mm )
12:46 am 00:46 Cloudy 67 19.4 65 18.3 93 93 WNW 3 6 29.78 1008 10 16 0.00 0.00
12:53 am 00:53 Mostly Cloudy 67 19.4 65 18.3 93 93 N 3 6 29.76 1008 10 16 0.00 0.00
1:00 am 01:00 Mostly Cloudy 67 19.4 65 18.3 93 93 NE 3 6 29.75 1007 10 16 0.00 0.00
1:53 am 01:53 Mostly Cloudy 67 19.4 65 18.3 93 93 S 3 6 29.76 1008 10 16 0.00 0.00
2:10 am 02:10 Cloudy 67 19.4 65 18.3 93 93 WNW 9 15 29.78 1008 10 16 0.00 0.00
2:14 am 02:14 Cloudy 67 19.4 65 18.3 93 93 WNW 10 17 29.78 1008 10 16 0.00 0.00
2:26 am 02:26 Cloudy 67 19.4 64 17.8 91 91 NW 3 6 29.76 1008 10 16 0.00 0.00
2:38 am 02:38 Cloudy 67 19.4 64 17.8 91 91 WNW 6 9 29.77 1008 10 16 0.00 0.00
2:53 am 02:53 Cloudy 66 18.9 64 17.8 93 93 WNW 5 7 29.76 1008 10 16 0.00 0.00
3:14 am 03:14 Cloudy 66 18.9 64 17.8 93 93 W 6 9 29.78 1008 10 16 0.00 0.00
3:41 am 03:41 Cloudy 66 18.9 64 17.8 93 93 NW 8 13 29.79 1009 10 16 0.00 0.00
3:53 am 03:53 Cloudy 65 18.3 63 17.2 93 93 WNW 9 15 29.78 1008 10 16 0.00 0.00
4:28 am 04:28 Cloudy 65 18.3 62 16.7 90 90 WNW 7 11 29.79 1009 10 16 0.00 0.00
4:53 am 04:53 Cloudy 65 18.3 62 16.7 90 90 W 6 9 29.79 1009 10 16 0.00 0.00
5:53 am 05:53 Cloudy 64 17.8 62 16.7 93 93 WNW 3 6 29.79 1009 10 16 0.00 0.00
6:07 am 06:07 Cloudy 64 17.8 62 16.7 93 93 NNW 3 6 29.79 1009 10 16 0.00 0.00
6:53 am 06:53 Cloudy 64 17.8 62 16.7 93 93 WNW 3 6 29.80 1009 10 16 0.00 0.03
7:53 am 07:53 Cloudy 64 17.8 62 16.7 93 93 W 5 7 29.81 1010 10 16 0.00 0.00
8:38 am 08:38 Cloudy 65 18.3 62 16.7 90 90 W 3 6 29.82 1010 10 16 0.00 0.00
8:53 am 08:53 Cloudy 65 18.3 62 16.7 90 90 W 6 9 29.82 1010 10 16 0.00 0.00
9:27 am 09:27 Cloudy with Light Rain 64 17.8 62 16.7 93 93 W 6 9 29.83 1010 6 10 0.01 0.25
9:36 am 09:36 Cloudy with Light Rain 65 18.3 63 17.2 93 93 WNW 9 15 29.82 1010 6 10 0.01 0.25
9:53 am 09:53 Cloudy 65 18.3 63 17.2 93 93 W 7 11 29.81 1010 9 14 0.01 0.25
10:25 am 10:25 Cloudy 66 18.9 62 16.7 87 87 WSW 6 9 29.82 1010 10 16 0.00 0.00
10:53 am 10:53 Cloudy 67 19.4 62 16.7 84 84 WNW 7 11 29.82 1010 10 16 0.00 0.00
11:12 am 11:12 Cloudy 67 19.4 62 16.7 84 84 WNW 7 11 29.82 1010 10 16 0.00 0.00
11:53 am 11:53 Cloudy 69 20.6 62 16.7 78 78 WNW 9 15 29.81 1010 10 16 0.00 0.00
12:15 pm 12:15 Cloudy 70 21.1 62 16.7 76 76 WNW 9 15 29.81 1009 10 16 0.00 0.00
12:26 pm 12:26 Cloudy 70 21.1 61 16.1 73 73 WNW 8 13 29.81 1009 10 16 0.00 0.00
12:53 pm 12:53 Cloudy 71 21.7 61 16.1 71 71 NNW 9 15 29.80 1009 10 16 0.00 0.00
1:53 pm 13:53 undefined 74 23.3 61 16.1 64 64 NW 7 11 29.79 1009 10 16 0.00 0.00
2:53 pm 14:53 Cloudy 74 23.3 60 15.6 62 62 N 7 11 29.78 1009 10 16 0.00 0.00
3:53 pm 15:53 Cloudy 71 21.7 59 15 66 66 NW 8 13 29.78 1008 10 16 0.00 0.00
4:53 pm 16:53 Cloudy 72 22.2 60 15.6 66 66 NW 10 17 29.78 1008 10 16 0.00 0.00
5:53 pm 17:53 Mostly Cloudy 70 21.1 59 15 68 68 W 10 17 29.78 1009 10 16 0.00 0.00
6:53 pm 18:53 Mostly Cloudy 68 20 59 15 73 73 NW 7 11 29.79 1009 10 16 0.00 0.00
7:53 pm 19:53 Cloudy 66 18.9 58 14.4 75 75 WNW 8 13 29.80 1009 10 16 0.00 0.00
8:29 pm 20:29 Cloudy 66 18.9 57 13.9 73 73 WNW 8 13 29.82 1010 10 16 0.00 0.00
8:53 pm 20:53 Cloudy 65 18.3 57 13.9 76 76 NW 6 9 29.83 1010 10 16 0.00 0.00
9:53 pm 21:53 Mostly Cloudy 64 17.8 56 13.3 75 75 NNW 6 9 29.84 1010 10 16 0.00 0.00
10:53 pm 22:53 Clear 61 16.1 56 13.3 84 84 NW 5 7 29.85 1011 10 16 0.00 0.00
11:53 pm 23:53 Clear 59 15 55 12.8 87 87 Calm 29.85 1011 10 16 0.00 0.00

Powered by AerisWeather